Change the Weather History Date:

Tuesday, November 26, 2013

  Actual Average Record
Temperature  
Mean Temperature 82 °F -  
Max Temperature 91 °F 67 °F 91 °F (2013)
Min Temperature 73 °F 51 °F 53 °F (2000)
Cooling Degree Days 17    
Growing Degree Days 32 (Base 50)    
Moisture  
Dew Point 36 °F    
Average Humidity 18    
Maximum Humidity 23    
Minimum Humidity 9    
Precipitation  
Precipitation 0.00 in 0.01 in - ()
Sea Level Pressure  
Sea Level Pressure 29.84 in    
Wind  
Wind Speed 12 mph ()    
Max Wind Speed 21 mph    
Max Gust Speed -    
Visibility 4.2 miles    
Events      
Averages and records for this station are not official NWS values.
T = Trace of Precipitation, MM = Missing Value Source: Averaged Metar Reports

Daily Weather History Graph

Daily Weather History Graph

Search for Another Location

Airport or City:

Trip Planner

Search our weather history database for the weather conditions in past years. The results will help you decide how hot, cold, wet, or windy it might be!

Date:

Astronomy

Nov. 26, 2013 Rise Set
Actual Time 6:28 AM EET 4:54 PM EET
Civil Twilight 6:02 AM EET 5:20 PM EET
Nautical Twilight 5:33 AM EET 5:49 PM EET
Astronomical Twilight 5:04 AM EET 6:18 PM EET
Moon No Moon Rise 12:24 PM EET (11/26)
Length of Visible Light 11h 17m
Length of Day
10h 25m
Last Quarter, 44% of the Moon is Illuminated
Nov 26
Last Quarter
Dec 3
New
Dec 9
First Quarter
Dec 17
Full
Dec 25
Last Quarter

Hourly Weather History & Observations

Time (EET) Temp. Dew Point Humidity Pressure Visibility Wind Dir Wind Speed Gust Speed Precip Events Conditions
12:00 AM 77.0 °F 33.8 °F 21% 29.86 in - SSE 11.5 mph - N/A   Clear
12:30 AM 75.2 °F 33.8 °F 22% 29.86 in - SSE 11.5 mph - N/A   Clear
1:00 AM 75.2 °F 33.8 °F 22% 29.86 in - SSE 9.2 mph - N/A   Clear
1:30 AM 75.2 °F 32.0 °F 21% 29.86 in - SSE 10.4 mph - N/A   Clear
2:00 AM 74 °F 31 °F 11% 29.86 in 6 mi SSE 10.4 mph - -   Partly Cloudy
2:00 AM 73.4 °F 32.0 °F 22% 29.86 in - SSE 10.4 mph - N/A   Clear
2:30 AM 73.4 °F 32.0 °F 22% 29.83 in - SSE 9.2 mph - N/A   Clear
3:00 AM 75.2 °F 32.0 °F 21% 29.83 in - SSE 9.2 mph - N/A   Clear
3:30 AM 75.2 °F 32.0 °F 21% 29.83 in - SSE 10.4 mph - N/A   Clear
4:00 AM 75.2 °F 32.0 °F 21% 29.83 in - SSE 11.5 mph - N/A   Clear
4:30 AM 75.2 °F 32.0 °F 21% 29.83 in - SSE 10.4 mph - N/A   Clear
5:00 AM 75.2 °F 32.0 °F 21% 29.83 in - SSE 10.4 mph - N/A   Clear
5:30 AM 73.4 °F 33.8 °F 23% 29.83 in - SSE 9.2 mph - N/A   Clear
6:00 AM 73.4 °F 33.8 °F 23% 29.83 in - SSE 10.4 mph - N/A   Clear
6:30 AM 75.2 °F 33.8 °F 22% 29.83 in - SSE 12.7 mph - N/A   Clear
7:00 AM 77.0 °F 33.8 °F 21% 29.83 in - SSE 15.0 mph - N/A   Clear
7:30 AM 77.0 °F 33.8 °F 21% 29.83 in - SSE 15.0 mph - N/A   Clear
8:00 AM 79 °F 34 °F 11% 29.85 in 6 mi West 16.1 mph - -   Partly Cloudy
8:00 AM 78.8 °F 33.8 °F 20% 29.83 in - SSE 16.1 mph - N/A   Clear
8:30 AM 78.8 °F 33.8 °F 20% 29.83 in - SSE 16.1 mph - N/A   Clear
9:00 AM 84.2 °F 37.4 °F 19% 29.86 in - SSE 15.0 mph - N/A   Clear
9:30 AM 87.8 °F 35.6 °F 16% 29.86 in - South 20.7 mph - N/A   Clear
10:00 AM 89.6 °F 35.6 °F 15% 29.86 in - South 20.7 mph - N/A   Clear
10:30 AM 89.6 °F 35.6 °F 15% 29.86 in 3.7 mi South 20.7 mph - N/A   Unknown
11:00 AM 88 °F 38 °F 9% 29.86 in 2 mi South 17.3 mph - -   Blowing Sand
11:00 AM 87.8 °F 37.4 °F 17% 29.86 in 2.5 mi South 17.3 mph - N/A   Sand
11:30 AM 87.8 °F 37.4 °F 17% 29.86 in 2.5 mi South 17.3 mph - N/A   Sand
12:00 PM 89.6 °F 39.2 °F 17% 29.83 in 2.5 mi South 17.3 mph - N/A   Sand
12:30 PM 89.6 °F 41.0 °F 18% 29.83 in 2.5 mi South 19.6 mph - N/A   Sand
1:00 PM 91.4 °F 39.2 °F 16% 29.83 in 3.7 mi South 19.6 mph - N/A   Unknown
1:30 PM 91.4 °F 39.2 °F 16% 29.80 in 3.7 mi South 19.6 mph - N/A   Unknown
2:00 PM 91 °F 39 °F 9% 29.81 in 6 mi SW 17.3 mph - -   Scattered Clouds
2:00 PM 91.4 °F 39.2 °F 16% 29.80 in - SW 17.3 mph - N/A   Clear
2:30 PM 91.4 °F 41.0 °F 17% 29.80 in - SW 17.3 mph - N/A   Clear
3:00 PM 91.4 °F 41.0 °F 17% 29.80 in - SW 17.3 mph - N/A   Clear
3:30 PM 91.4 °F 41.0 °F 17% 29.80 in - SW 17.3 mph - N/A   Clear
4:00 PM 89.6 °F 41.0 °F 18% 29.83 in - SSW 13.8 mph - N/A   Clear
4:30 PM 89.6 °F 39.2 °F 17% 29.83 in - SSW 13.8 mph - N/A   Clear
5:00 PM 87 °F 41 °F 11% 29.83 in 6 mi SSW 10.4 mph - -  
5:00 PM 87.8 °F 41.0 °F 19% 29.83 in - SSW 10.4 mph - N/A   Clear
5:30 PM 86.0 °F 42.8 °F 22% 29.83 in - SSW 10.4 mph - N/A   Clear
6:00 PM 84.2 °F 41.0 °F 22% 29.83 in - South 9.2 mph - N/A   Clear
6:30 PM 82.4 °F 41.0 °F 23% 29.86 in - South 9.2 mph - N/A   Clear
7:00 PM 82.4 °F 39.2 °F 21% 29.86 in - South 10.4 mph - N/A   Clear
7:30 PM 80.6 °F 37.4 °F 21% 29.86 in - South 10.4 mph - N/A   Clear
8:00 PM 81 °F 38 °F 12% 29.86 in 6 mi South 11.5 mph - -  
8:00 PM 80.6 °F 37.4 °F 21% 29.86 in - South 11.5 mph - N/A   Clear
8:30 PM 80.6 °F 37.4 °F 21% 29.86 in - SSE 10.4 mph - N/A   Clear
9:00 PM 80.6 °F 35.6 °F 20% 29.86 in - SSE 10.4 mph - N/A   Clear
9:30 PM 80.6 °F 33.8 °F 18% 29.86 in - SSE 10.4 mph - N/A   Clear
10:00 PM 78.8 °F 35.6 °F 21% 29.86 in - SSE 11.5 mph - N/A   Clear
10:30 PM 78.8 °F 35.6 °F 21% 29.86 in - SSE 11.5 mph - N/A   Clear
11:00 PM 80 °F 34 °F 10% 29.88 in 6 mi South 10.4 mph - -  
11:00 PM 80.6 °F 33.8 °F 18% 29.89 in - South 10.4 mph - N/A   Clear
11:30 PM 80.6 °F 33.8 °F 18% 29.89 in - South 10.4 mph - N/A   Clear